Ketchikan, AK

9:22 AM AKDT on July 20, 2017 (GMT -0800)
Ketchikan International

Weather History for PAKT - February, 2013

Change the Weather History Date:

Sunday, February 10, 2013

  Actual Average Record
Temperature  
Mean Temperature 42 °F -  
Max Temperature 46 °F 41 °F 51 °F (1970)
Min Temperature 39 °F 30 °F 12 °F (1975)
Degree Days  
Heating Degree Days 22    
Moisture  
Dew Point 42 °F    
Average Humidity 98    
Maximum Humidity 100    
Minimum Humidity 90    
Precipitation  
Precipitation 0.34 in - - ()
Sea Level Pressure  
Sea Level Pressure 30.17 in    
Wind  
Wind Speed 12 mph (SE)    
Max Wind Speed 18 mph    
Max Gust Speed 26 mph    
Visibility 9 miles    
Events Rain    
Averages and records for this station are not official NWS values.
T = Trace of Precipitation, MM = Missing Value Source: NWS Daily Summary

Daily Weather History Graph

Daily Weather History Graph

Search for Another Location

Airport or City:

Trip Planner

Search our weather history database for the weather conditions in past years. The results will help you decide how hot, cold, wet, or windy it might be!

Date:

Astronomy

Feb. 10, 2013 Rise Set
Actual Time 7:20 AM AKST 4:42 PM AKST
Civil Twilight 6:41 AM AKST 5:21 PM AKST
Nautical Twilight 5:58 AM AKST 6:04 PM AKST
Astronomical Twilight 5:16 AM AKST 6:47 PM AKST
Moon 6:59 AM AKST (2/10) 6:00 PM AKST (2/10)
Length of Visible Light 10h 40m
Length of Day
9h 22m
New Moon, 0% of the Moon is Illuminated
Feb 10
New Moon
Feb 17
First Quarter
Feb 25
Full
Mar 4
Last Quarter
Mar 11
New

Hourly Weather History & Observations

Time (AKST) Temp. Windchill Dew Point Humidity Pressure Visibility Wind Dir Wind Speed Gust Speed Precip Events Conditions
12:05 AM 44.6 °F 38.1 °F 44.6 °F 100% 30.24 in 3.0 mi SE 13.8 mph - 0.01 in Rain Light Rain
12:53 AM 44.1 °F 36.8 °F 44.1 °F 100% 30.25 in 3.0 mi SE 16.1 mph - 0.04 in Rain Light Rain
1:53 AM 44.1 °F 39.5 °F 44.1 °F 100% 30.25 in 10.0 mi SE 8.1 mph - 0.01 in   Overcast
2:29 AM 42.8 °F 35.8 °F 42.8 °F 100% 30.23 in 10.0 mi SE 13.8 mph - N/A   Overcast
3:31 AM 42.8 °F 35.4 °F 42.8 °F 100% 30.20 in 10.0 mi SE 15.0 mph 24.2 mph N/A   Overcast
3:42 AM 44.6 °F 38.8 °F 42.8 °F 93% 30.20 in 10.0 mi SE 11.5 mph 20.7 mph N/A   Overcast
3:53 AM 43.0 °F 36.8 °F 43.0 °F 100% 30.20 in 10.0 mi SE 11.5 mph - N/A   Overcast
4:07 AM 42.8 °F 36.6 °F 42.8 °F 100% 30.19 in 10.0 mi SSE 11.5 mph - 0.00 in   Overcast
4:34 AM 42.8 °F 35.4 °F 42.8 °F 100% 30.19 in 10.0 mi SE 15.0 mph - 0.00 in Rain Light Rain
4:53 AM 43.0 °F 36.0 °F 42.1 °F 97% 30.19 in 8.0 mi SE 13.8 mph - 0.00 in Rain Light Rain
5:05 AM 42.8 °F 35.4 °F 42.8 °F 100% 30.18 in 9.0 mi SE 15.0 mph 25.3 mph 0.00 in Rain Light Rain
5:44 AM 42.8 °F 34.8 °F 42.8 °F 100% 30.16 in 4.0 mi SE 17.3 mph 26.5 mph 0.01 in Rain Light Rain
5:53 AM 42.1 °F 33.6 °F 42.1 °F 100% 30.17 in 6.0 mi SE 18.4 mph - 0.01 in Rain Light Rain
6:04 AM 42.8 °F 34.5 °F 42.8 °F 100% 30.16 in 6.0 mi SE 18.4 mph - 0.01 in Rain Light Rain
6:53 AM 43.0 °F 35.4 °F 43.0 °F 100% 30.16 in 5.0 mi SE 16.1 mph 25.3 mph 0.03 in Rain Light Rain
7:53 AM 43.0 °F 36.4 °F 43.0 °F 100% 30.15 in 8.0 mi SE 12.7 mph 21.9 mph 0.09 in Rain Light Rain
8:53 AM 43.0 °F 35.1 °F 43.0 °F 100% 30.15 in 8.0 mi SE 17.3 mph - 0.05 in Rain Light Rain
9:53 AM 43.0 °F 37.2 °F 43.0 °F 100% 30.15 in 10.0 mi SE 10.4 mph - 0.07 in Rain Light Rain
10:53 AM 44.1 °F 37.4 °F 44.1 °F 100% 30.14 in 10.0 mi SE 13.8 mph - 0.02 in   Overcast
11:53 AM 46.0 °F 41.4 °F 46.0 °F 100% 30.15 in 10.0 mi SE 9.2 mph - N/A   Overcast
12:53 PM 46.0 °F 41.0 °F 46.0 °F 100% 30.14 in 10.0 mi SE 10.4 mph - 0.00 in   Overcast
1:53 PM 45.0 °F 40.6 °F 45.0 °F 100% 30.14 in 6.0 mi East 8.1 mph - 0.02 in Rain Light Rain
2:53 PM 45.0 °F 41.8 °F 45.0 °F 100% 30.13 in 10.0 mi Variable 5.8 mph - 0.00 in   Overcast
3:53 PM 45.0 °F 41.8 °F 42.1 °F 90% 30.14 in 10.0 mi South 5.8 mph - N/A   Mostly Cloudy
4:53 PM 43.0 °F 40.3 °F 41.0 °F 93% 30.15 in 10.0 mi South 4.6 mph - N/A   Mostly Cloudy
5:53 PM 42.1 °F 38.4 °F 39.9 °F 92% 30.14 in 10.0 mi South 5.8 mph - N/A   Scattered Clouds
6:53 PM 41.0 °F 36.4 °F 39.9 °F 96% 30.15 in 10.0 mi SE 6.9 mph - N/A   Overcast
7:53 PM 41.0 °F 39.0 °F 39.9 °F 96% 30.14 in 10.0 mi SSE 3.5 mph - N/A   Overcast
8:53 PM 39.9 °F 35.8 °F 39.0 °F 97% 30.15 in 10.0 mi SSE 5.8 mph - N/A   Mostly Cloudy
9:53 PM 39.9 °F 35.1 °F 39.0 °F 97% 30.14 in 10.0 mi SE 6.9 mph - N/A   Mostly Cloudy
10:25 PM 39.2 °F 35.0 °F 39.2 °F 100% 30.13 in 10.0 mi SSE 5.8 mph - N/A   Overcast
10:51 PM 41.0 °F 37.1 °F 39.2 °F 93% 30.13 in 10.0 mi SSE 5.8 mph - N/A   Overcast
10:53 PM 41.0 °F 37.1 °F 39.9 °F 96% 30.13 in 10.0 mi SSE 5.8 mph - N/A   Overcast
11:53 PM 41.0 °F 36.4 °F 39.0 °F 93% 30.12 in 10.0 mi SSE 6.9 mph - N/A   Overcast